When you browse on this site, cookies collect data to enhance your experience and personalize the content and advertising you see.
Visit our Privacy Policy to learn more. By continuing to use the site, you agree to this use of cookies and data.
  • In Lithuania
  • List of Countries
  • For 7 days
  • Water Temperature
  • Satellite Maps
  • Weather Map
  • Weather Widgets
  • user-avatar
    Login

    Hourly Weather Bijsk

    Today, 21 April, Sunday

    Time Temperature Precipitation Wind Pressure Humidity
    00:00 +1°C° 0 mm 2 mps 741 mmHg 92%
    01:00 0°C° 0.2 mm 3 mps 742 mmHg 91%
    02:00 0°C° 0.2 mm 3 mps 742 mmHg 90%
    03:00 0°C° 0.2 mm 3 mps 743 mmHg 89%
    04:00 0°C° 0.2 mm 3 mps 743 mmHg 88%
    05:00 0°C° 0.2 mm 3 mps 744 mmHg 88%
    06:00 0°C° 0 mm 3 mps 744 mmHg 82%
    07:00 0°C° 0.1 mm 4 mps 745 mmHg 77%
    08:00 +1°C° 0.1 mm 4 mps 745 mmHg 72%
    09:00 +3°C° 0.1 mm 4 mps 746 mmHg 67%
    10:00 +3°C° 0 mm 5 mps 746 mmHg 62%
    11:00 +3°C° 0 mm 5 mps 746 mmHg 58%
    12:00 +5°C° 0 mm 5 mps 747 mmHg 53%
    13:00 +6°C° 0 mm 5 mps 747 mmHg 50%
    14:00 +6°C° 0 mm 5 mps 747 mmHg 48%
    15:00 +7°C° 0 mm 5 mps 747 mmHg 45%
    16:00 +7°C° 0 mm 5 mps 747 mmHg 47%
    17:00 +6°C° 0 mm 5 mps 748 mmHg 48%
    18:00 +6°C° 0 mm 4 mps 748 mmHg 49%
    19:00 +5°C° 0 mm 4 mps 748 mmHg 56%
    20:00 +3°C° 0 mm 4 mps 749 mmHg 63%
    21:00 +2°C° 0 mm 3 mps 749 mmHg 69%
    22:00 +2°C° 0 mm 3 mps 749 mmHg 70%
    23:00 +1°C° 0 mm 3 mps 750 mmHg 71%

    Tomorrow, 22 April, Monday

    Time Temperature Precipitation Wind Pressure Humidity
    00:00 +1°C° 0 mm 2 mps 750 mmHg 72%
    01:00 +1°C° 0 mm 2 mps 750 mmHg 73%
    02:00 +1°C° 0 mm 2 mps 750 mmHg 73%
    03:00 -1°C° 0 mm 2 mps 750 mmHg 73%
    04:00 +2°C° 0 mm 1 mps 750 mmHg 72%
    05:00 +2°C° 0 mm 1 mps 751 mmHg 71%
    06:00 +2°C° 0 mm 1 mps 751 mmHg 70%
    07:00 +3°C° 0 mm 0 mps 751 mmHg 65%
    08:00 +4°C° 0 mm 0 mps 751 mmHg 60%
    09:00 +6°C° 0 mm 0 mps 751 mmHg 55%
    10:00 +7°C° 0 mm 0 mps 751 mmHg 52%
    11:00 +9°C° 0 mm 1 mps 751 mmHg 50%
    12:00 +10°C° 0 mm 1 mps 751 mmHg 47%
    13:00 +10°C° 0 mm 1 mps 751 mmHg 46%
    14:00 +9°C° 0 mm 2 mps 751 mmHg 44%
    15:00 +9°C° 0 mm 2 mps 750 mmHg 43%
    16:00 +9°C° 0 mm 2 mps 750 mmHg 44%
    17:00 +9°C° 0 mm 2 mps 750 mmHg 46%
    18:00 +9°C° 0 mm 2 mps 750 mmHg 47%
    19:00 +7°C° 0 mm 2 mps 751 mmHg 52%
    20:00 +6°C° 0 mm 2 mps 751 mmHg 57%
    21:00 +4°C° 0 mm 3 mps 751 mmHg 62%
    22:00 +4°C° 0 mm 2 mps 751 mmHg 63%
    23:00 +4°C° 0 mm 2 mps 751 mmHg 64%

    Day after tomorrow, 23 April, Tuesday

    Time Temperature Precipitation Wind Pressure Humidity
    00:00 +3°C° 0 mm 2 mps 751 mmHg 65%
    01:00 +3°C° 0 mm 2 mps 750 mmHg 67%
    02:00 +3°C° 0 mm 2 mps 750 mmHg 69%
    03:00 +3°C° 0 mm 1 mps 750 mmHg 71%
    04:00 +3°C° 0 mm 1 mps 750 mmHg 73%
    05:00 +3°C° 0 mm 1 mps 750 mmHg 74%
    06:00 +3°C° 0 mm 1 mps 750 mmHg 76%
    07:00 +4°C° 0 mm 0 mps 749 mmHg 70%
    08:00 +5°C° 0 mm 0 mps 749 mmHg 64%
    09:00 +7°C° 0 mm 0 mps 749 mmHg 58%
    10:00 +8°C° 0 mm 0 mps 749 mmHg 53%
    11:00 +10°C° 0 mm 0 mps 748 mmHg 48%
    12:00 +11°C° 0 mm 0 mps 748 mmHg 44%
    13:00 +12°C° 0 mm 1 mps 748 mmHg 42%
    14:00 +13°C° 0 mm 1 mps 747 mmHg 40%
    15:00 +13°C° 0 mm 2 mps 747 mmHg 38%
    16:00 +13°C° 0 mm 2 mps 747 mmHg 38%
    17:00 +13°C° 0 mm 2 mps 747 mmHg 38%
    18:00 +13°C° 0 mm 2 mps 747 mmHg 38%
    19:00 +11°C° 0 mm 1 mps 747 mmHg 42%
    20:00 +10°C° 0 mm 1 mps 748 mmHg 45%
    21:00 +9°C° 0 mm 1 mps 748 mmHg 49%
    22:00 +8°C° 0 mm 1 mps 748 mmHg 50%
    23:00 +8°C° 0 mm 1 mps 747 mmHg 52%

    24 April, Wednesday

    Time Temperature Precipitation Wind Pressure Humidity
    00:00 +6°C° 0 mm 0 mps 747 mmHg 53%
    01:00 +7°C° 0 mm 1 mps 747 mmHg 55%
    02:00 +6°C° 0 mm 1 mps 747 mmHg 57%
    03:00 +6°C° 0 mm 1 mps 747 mmHg 59%
    04:00 +6°C° 0 mm 1 mps 747 mmHg 62%
    05:00 +6°C° 0 mm 1 mps 747 mmHg 65%
    06:00 +5°C° 0 mm 1 mps 747 mmHg 67%
    07:00 +7°C° 0 mm 1 mps 747 mmHg 61%
    08:00 +9°C° 0 mm 1 mps 747 mmHg 55%
    09:00 +10°C° 0 mm 0 mps 747 mmHg 49%
    10:00 +11°C° 0 mm 0 mps 747 mmHg 44%
    11:00 +13°C° 0 mm 1 mps 746 mmHg 38%
    12:00 +14°C° 0 mm 1 mps 746 mmHg 33%
    13:00 +15°C° 0 mm 1 mps 746 mmHg 32%
    14:00 +15°C° 0 mm 1 mps 745 mmHg 30%
    15:00 +15°C° 0 mm 1 mps 745 mmHg 29%
    16:00 +15°C° 0 mm 2 mps 745 mmHg 30%
    17:00 +15°C° 0 mm 2 mps 744 mmHg 31%
    18:00 +15°C° 0 mm 2 mps 744 mmHg 32%
    19:00 +13°C° 0 mm 2 mps 744 mmHg 35%
    20:00 +12°C° 0 mm 2 mps 744 mmHg 39%
    21:00 +10°C° 0 mm 2 mps 744 mmHg 42%
    22:00 +9°C° 0 mm 2 mps 744 mmHg 44%
    23:00 +9°C° 0 mm 2 mps 744 mmHg 46%

    25 April, Thursday

    Time Temperature Precipitation Wind Pressure Humidity
    00:00 +8°C° 0 mm 2 mps 744 mmHg 49%
    01:00 +8°C° 0 mm 2 mps 743 mmHg 51%
    02:00 +9°C° 0 mm 1 mps 743 mmHg 54%
    03:00 +9°C° 0 mm 1 mps 743 mmHg 57%
    04:00 +8°C° 0 mm 1 mps 743 mmHg 60%
    05:00 +8°C° 0 mm 1 mps 743 mmHg 62%
    06:00 +7°C° 0 mm 0 mps 742 mmHg 64%
    07:00 +9°C° 0 mm 1 mps 742 mmHg 61%
    08:00 +10°C° 0 mm 1 mps 743 mmHg 59%
    09:00 +12°C° 0 mm 1 mps 743 mmHg 57%
    10:00 +13°C° 0 mm 2 mps 742 mmHg 53%
    11:00 +13°C° 0 mm 3 mps 742 mmHg 50%
    12:00 +14°C° 0 mm 3 mps 742 mmHg 46%
    13:00 +14°C° 0 mm 4 mps 742 mmHg 45%
    14:00 +15°C° 0 mm 4 mps 742 mmHg 43%
    15:00 +15°C° 0 mm 5 mps 742 mmHg 41%
    16:00 +14°C° 0.1 mm 5 mps 742 mmHg 45%
    17:00 +14°C° 0.1 mm 5 mps 742 mmHg 50%
    18:00 +13°C° 0.1 mm 4 mps 742 mmHg 54%
    19:00 +12°C° 0.6 mm 4 mps 742 mmHg 62%
    20:00 +11°C° 0.6 mm 3 mps 743 mmHg 70%
    21:00 +9°C° 0.6 mm 3 mps 743 mmHg 79%
    22:00 +10°C° 0.1 mm 3 mps 743 mmHg 75%
    23:00 +10°C° 0.1 mm 4 mps 742 mmHg 71%

    26 April, Friday

    Time Temperature Precipitation Wind Pressure Humidity
    00:00 +9°C° 0.1 mm 5 mps 742 mmHg 67%
    01:00 +8°C° 0 mm 5 mps 742 mmHg 66%
    02:00 +8°C° 0 mm 5 mps 743 mmHg 66%
    03:00 +8°C° 0 mm 6 mps 743 mmHg 66%
    04:00 +8°C° 0 mm 6 mps 743 mmHg 69%
    05:00 +7°C° 0 mm 5 mps 744 mmHg 72%
    06:00 +7°C° 0 mm 5 mps 744 mmHg 75%
    07:00 +8°C° 0 mm 6 mps 744 mmHg 65%
    08:00 +10°C° 0 mm 7 mps 744 mmHg 55%
    09:00 +11°C° 0 mm 8 mps 744 mmHg 46%
    10:00 +12°C° 0 mm 8 mps 744 mmHg 45%
    11:00 +12°C° 0 mm 8 mps 744 mmHg 44%
    12:00 +13°C° 0 mm 9 mps 744 mmHg 43%
    13:00 +13°C° 0.3 mm 8 mps 743 mmHg 46%
    14:00 +12°C° 0.3 mm 7 mps 743 mmHg 50%
    15:00 +13°C° 0.3 mm 6 mps 743 mmHg 53%
    16:00 +10°C° 1.4 mm 6 mps 743 mmHg 59%
    17:00 +8°C° 1.4 mm 6 mps 744 mmHg 65%
    18:00 +6°C° 1.4 mm 5 mps 744 mmHg 72%
    19:00 +6°C° 0.3 mm 5 mps 745 mmHg 73%
    20:00 +6°C° 0.3 mm 4 mps 746 mmHg 74%
    21:00 +5°C° 0.3 mm 4 mps 747 mmHg 75%
    22:00 +5°C° 0.5 mm 4 mps 748 mmHg 73%
    23:00 +4°C° 0.5 mm 4 mps 748 mmHg 72%
    Show more